Location: *
(43.9905°S, 176.4941°W)
Time: 20:03:51
(UTC+00:00)

deb Kosmos-1763 - Pass Details

Date: 08 December 2019
Orbit: 472 x 482 km, 74.0° (Epoch: 29 January)

Event Time Altitude Azimuth Distance (km) Brightness Sun altitude
Rises 09:48:59 0° 203° (SSW) 2,590 9.5 -18.8°
Reaches altitude 10° 09:51:08 10° 205° (SSW) 1,702 8.1 -19.0°
Maximum altitude 09:54:53 69° 288° (WNW) 534 4.2 -19.3°
Enters shadow 09:55:33 54° 345° (NNW) 608 4.2 -19.3°
